Location: Newark
(50.0821°N, 8.2414°E)
Time: 05:01:00
(UTC+00:00)

ISS - Visible Passes

Search period start: 21 July 2019 00:00
Search period end: 31 July 2019 00:00
Orbit: 409 x 418 km, 51.6° (Epoch: 21 July)

Date Brightness Start Highest point End Pass type
(mag) Time Alt. Az. Time Alt. Az. Time Alt. Az.
21 Jul -3.3 00:15:27 10° WNW 00:18:01 46° W 00:18:01 46° W visible
21 Jul -3.8 20:12:37 10° WSW 20:15:56 65° SSE 20:19:15 10° ENE visible
21 Jul -3.4 21:49:20 10° W 21:52:40 65° N 21:56:00 10° E visible
21 Jul -3.9 23:26:08 10° WNW 23:29:25 84° WSW 23:29:25 84° WSW visible
22 Jul -3.5 20:59:58 10° W 21:03:18 70° N 21:06:39 10° ENE visible
22 Jul -3.7 22:36:48 10° WNW 22:40:09 78° NNE 22:41:12 41° E visible
23 Jul -1.2 00:13:37 10° W 00:13:59 12° W 00:13:59 12° W visible
23 Jul -3.7 20:10:35 10° WSW 20:13:57 81° NNW 20:17:17 10° ENE visible
23 Jul -3.5 21:47:27 10° WNW 21:50:47 68° N 21:53:09 18° E visible
23 Jul -2.3 23:24:12 10° WNW 23:25:57 27° W 23:25:57 27° W visible
24 Jul -3.4 20:58:03 10° W 21:01:24 64° N 21:04:43 10° E visible
24 Jul -3.8 22:34:49 10° WNW 22:37:59 68° SW 22:37:59 68° SW visible
25 Jul -3.4 20:08:39 10° W 20:11:59 66° N 20:15:19 10° E visible
25 Jul -3.9 21:45:27 10° WNW 21:48:49 89° NE 21:50:04 35° ESE visible
25 Jul -1.2 23:22:23 10° W 23:22:52 13° W 23:22:52 13° W visible
26 Jul -3.6 20:56:04 10° WNW 20:59:26 75° NNE 21:02:12 14° E visible
26 Jul -2.5 22:32:51 10° W 22:35:01 30° WSW 22:35:01 30° WSW visible
27 Jul -3.4 20:06:40 10° WNW 20:10:00 66° N 20:13:20 10° E visible
27 Jul -3.7 21:43:25 10° WNW 21:46:42 55° SSW 21:47:10 49° S visible
28 Jul -3.8 20:54:00 10° WNW 20:57:21 76° SSW 20:59:21 22° ESE visible
28 Jul -1.5 22:31:08 10° W 22:32:10 15° WSW 22:32:10 15° WSW visible
29 Jul -3.7 20:04:36 10° WNW 20:07:57 85° NNE 20:11:17 10° ESE visible
29 Jul -2.6 21:41:28 10° W 21:44:22 29° SW 21:44:22 29° SW visible
30 Jul -3.2 20:51:56 10° W 20:55:07 42° SSW 20:56:36 25° SSE visible
